Location: Bijele Vode
(45.2833°N, 16.2000°E)
Time: 21:02:43
(UTC+00:00)

Cosmos 1544 - Pass Details

Date: 18 September 2020
Orbit: 471 x 491 km, 82.5° (Epoch: 27 October)

Event Time Altitude Azimuth Distance (km) Brightness Sun altitude
Rises 17:19:19 0° 183° (S) 2,554 6.7 -4.2°
Reaches altitude 10° 17:21:25 10° 181° (S) 1,675 5.7 -4.6°
Maximum altitude 17:25:05 73° 97° (E) 517 3.0 -5.3°
Drops below altitude 10° 17:28:45 10° 13° (NNE) 1,681 5.8 -5.9°
Sets 17:30:51 0° 11° (N) 2,563 6.7 -6.3°
